FW2982 Weather Reports


time (UTC)temp
C
wind
direction
speed
KPH
gust
KPH
rain 1hr
cm
rain 24hr
cm
rain mn
cm
humidity
%
barometer
mb
20260903220518 30 230 0.0 6.4 0.00 0.00 0.00 75 1011.4
20260903220012 31 228 0.0 6.4 0.00 0.00 0.00 74 1011.3
20260903215511 31 344 1.6 4.8 0.00 0.00 0.00 73 1011.4
20260903215031 31 252 1.6 8.0 0.00 0.00 0.00 71 1011.4
20260903215023 31 224 1.6 4.8 0.00 0.00 0.00 72 1011.4
20260903214012 31 0 3.2 8.0 0.00 0.00 0.00 70 1011.3
20260903213511 31 312 0.0 4.8 0.00 0.00 0.00 72 1011.4
20260903213012 31 341 0.0 4.8 0.00 0.00 0.00 72 1011.4
20260903212507 32 303 1.6 4.8 0.00 0.00 0.00 68 1011.3
20260903212030 32 257 1.6 8.0 0.00 0.00 0.00 69 1011.5
20260903212023 32 255 1.6 8.0 0.00 0.00 0.00 67 1011.4
20260903211007 32 299 0.0 4.8 0.00 0.00 0.00 67 1011.5
20260903210505 32 303 1.6 6.4 0.00 0.00 0.00 68 1011.5
20260903210005 32 0 0.0 6.4 0.00 0.00 0.00 68 1011.5
20260903205749 32 310 3.2 4.8 0.00 0.00 0.00 66 1011.5
20260903205005 32 276 1.6 3.2 0.00 0.00 0.00 65 1011.6
20260903204505 32 288 0.0 9.7 0.00 0.00 0.00 65 1011.6
20260903204006 32 285 1.6 9.7 0.00 0.00 0.00 65 1011.7
20260903203505 32 306 1.6 6.4 0.00 0.00 0.00 66 1011.8
20260903203004 32 276 3.2 6.4 0.00 0.00 0.00 66 1011.8
20260903202504 32 251 1.6 4.8 0.00 0.00 0.00 67 1011.8
20260903202005 32 334 1.6 8.0 0.00 0.00 0.00 67 1011.8
20260903201504 32 268 4.8 8.0 0.00 0.00 0.00 67 1011.9
20260903201004 32 240 1.6 6.4 0.00 0.00 0.00 69 1012.0
20260903200505 32 230 1.6 4.8 0.00 0.00 0.00 67 1012.1
20260903200243 32 144 1.6 6.4 0.00 0.00 0.00 67 1012.1
20260903195503 32 204 3.2 6.4 0.00 0.00 0.00 66 1012.3
20260903195244 32 295 1.6 4.8 0.00 0.00 0.00 66 1012.4
20260903194504 33 286 1.6 6.4 0.00 0.00 0.00 66 1012.6
20260903194004 32 209 3.2 6.4 0.00 0.00 0.00 68 1012.6
20260903193503 32 189 1.6 6.4 0.00 0.00 0.00 68 1012.6
20260903193003 32 275 1.6 4.8 0.00 0.00 0.00 69 1012.7
20260903192744 32 274 1.6 4.8 0.00 0.00 0.00 69 1012.7
20260903192006 32 347 0.0 6.4 0.00 0.00 0.00 65 1013.0
20260903191502 32 340 1.6 6.4 0.00 0.00 0.00 67 1013.1
20260903191003 32 0 1.6 6.4 0.00 0.00 0.00 70 1013.2
20260903190504 31 351 3.2 6.4 0.00 0.00 0.00 72 1013.2
20260903185931 31 299 0.0 4.8 0.00 0.00 0.00 72 1013.4
20260903185431 31 190 1.6 4.8 0.00 0.00 0.00 72 1013.4
20260903184932 30 281 0.0 0.0 0.00 0.03 0.00 75 1013.5
20260903184710 30 281 0.0 0.0 0.00 0.03 0.00 74 1013.3
20260903183932 30 281 0.0 0.0 0.00 0.05 0.00 75 1013.5
20260903183431 30 283 0.0 0.0 0.00 0.08 0.00 77 1013.5
20260903182930 30 283 0.0 1.6 0.00 0.13 0.00 76 1013.5
20260903182520 30 275 1.6 4.8 0.00 0.33 0.00 74 1013.5
20260903182505 30 283 0.0 3.2 0.00 0.18 0.00 76 1013.4
20260903182231 30 283 0.0 4.8 0.00 0.23 0.00 74 1013.5
20260903180932 31 347 1.6 3.2 0.00 0.46 0.00 73 1013.8
20260903180711 31 285 1.6 3.2 0.00 0.46 0.00 71 1013.8
20260903175931 30 357 0.0 3.2 0.00 0.46 0.00 73 1013.9
20260903175431 30 357 0.0 3.2 0.00 0.46 0.00 71 1014.0
20260903174932 31 288 1.6 4.8 0.00 0.46 0.00 72 1013.9
20260903174431 30 290 1.6 4.8 0.00 0.46 0.00 70 1013.7
20260903173931 30 209 3.2 4.8 0.00 0.46 0.00 71 1013.8
20260903173432 30 209 0.0 4.8 0.00 0.46 0.00 73 1014.1
20260903173214 30 189 1.6 4.8 0.00 0.46 0.00 72 1014.4
20260903172712 30 275 0.0 3.2 0.00 0.46 0.00 72 1014.5
20260903171931 30 323 1.6 3.2 0.00 0.46 0.00 72 1014.7
20260903171432 30 87 0.0 3.2 0.00 0.46 0.00 72 1014.8
20260903170932 30 87 0.0 3.2 0.00 0.46 0.00 73 1014.9
20260903170433 30 89 0.0 4.8 0.00 0.46 0.00 73 1014.9
20260903170213 30 78 3.2 4.8 0.00 0.46 0.00 70 1015.1
20260903165431 30 305 0.0 4.8 0.00 0.46 0.00 74 1015.0
20260903164931 30 200 0.0 4.8 0.00 0.46 0.00 73 1015.1
20260903164433 30 165 0.0 6.4 0.00 0.46 0.00 73 1015.2
20260903163933 29 179 1.6 8.0 0.00 0.46 0.00 74 1015.4
20260903163431 29 59 3.2 8.0 0.00 0.46 0.00 76 1015.4
20260903162930 28 54 1.6 8.0 0.00 0.46 0.00 77 1015.4
20260903162711 28 58 1.6 8.0 0.00 0.46 0.00 77 1015.5
20260903161921 29 37 1.6 8.0 0.00 0.46 0.00 78 1015.7
20260903161706 28 265 3.2 4.8 0.00 0.46 0.00 79 1015.7
20260903160919 28 54 1.6 4.8 0.00 0.46 0.00 83 1015.6
20260903160415 27 299 0.0 3.2 0.00 0.46 0.00 83 1015.8
20260903160155 28 302 0.0 3.2 0.00 0.46 0.00 85 1016.0
20260903155652 27 303 1.6 8.0 0.00 0.46 0.00 85 1016.1
20260903155217 27 93 1.6 3.2 0.00 0.46 0.00 86 1016.4
20260903155212 27 307 3.2 8.0 0.00 0.46 0.00 85 1016.2
20260903153913 27 327 0.0 1.6 0.00 0.46 0.00 85 1016.5
20260903153410 27 327 0.0 4.8 0.00 0.46 0.00 84 1016.4
20260903152911 27 327 1.6 4.8 0.00 0.46 0.00 84 1015.7
20260903152412 27 314 0.0 3.2 0.00 0.46 0.00 85 1015.6
20260903151912 27 293 1.6 3.2 0.00 0.46 0.00 85 1015.7
20260903151650 27 238 0.0 3.2 0.00 0.46 0.00 85 1015.7
20260903150909 27 238 1.6 8.0 0.00 0.46 0.00 84 1015.7
20260903150652 27 240 1.6 8.0 0.00 0.46 0.00 86 1015.7
20260903145909 27 336 0.0 4.8 0.00 0.46 0.00 86 1015.6
20260903145407 27 292 0.0 3.2 0.00 0.46 0.00 86 1015.5
20260903144909 26 300 0.0 3.2 0.00 0.46 0.00 87 1015.4
20260903144408 27 298 0.0 3.2 0.00 0.46 0.00 87 1015.5
20260903143907 27 299 0.0 4.8 0.00 0.46 0.00 86 1015.5
20260903143403 27 299 1.6 4.8 0.00 0.46 0.00 88 1015.5
20260903142904 26 6 0.0 3.2 0.00 0.46 0.00 89 1015.5
20260903142404 26 337 0.0 3.2 0.00 0.46 0.00 90 1015.5
20260903141903 26 337 0.0 3.2 0.00 0.46 0.00 90 1015.3
20260903141404 26 338 0.0 3.2 0.00 0.46 0.00 92 1015.4
20260903140903 25 102 1.6 3.2 0.00 0.46 0.00 93 1015.2
20260903140403 25 228 0.0 3.2 0.00 0.46 0.00 95 1015.0
20260903135906 25 214 0.0 3.2 0.00 0.46 0.00 96 1015.1
20260903135641 25 214 0.0 3.2 0.00 0.46 0.00 97 1015.2
20260903134903 23 214 0.0 3.2 0.00 0.46 0.00 97 1015.1
20260903134645 23 190 0.0 3.2 0.00 0.46 0.00 97 1015.0
20260903133902 23 190 0.0 3.2 0.00 0.46 0.00 97 1014.9
20260903133402 23 190 1.6 4.8 0.00 0.46 0.00 97 1015.2
20260903132904 23 189 1.6 6.4 0.00 0.46 0.00 97 1015.1
20260903132402 23 127 0.0 6.4 0.00 0.46 0.00 97 1015.4
20260903131902 23 41 1.6 4.8 0.00 0.46 0.00 97 1015.3
20260903131404 23 210 0.0 4.8 0.00 0.46 0.00 97 1015.5
20260903130902 23 185 1.6 4.8 0.00 0.46 0.00 97 1015.6
20260903130404 23 76 0.0 1.6 0.00 0.46 0.00 97 1015.8
20260903125902 23 76 0.0 0.0 0.00 0.46 0.00 97 1016.0
20260903125403 23 76 0.0 1.6 0.00 0.46 0.00 97 1016.0
20260903124902 23 76 0.0 3.2 0.00 0.46 0.00 98 1016.2
20260903124403 22 75 0.0 3.2 0.00 0.46 0.00 97 1016.1
20260903123902 22 75 0.0 4.8 0.00 0.46 0.00 97 1016.2
20260903123401 22 75 1.6 4.8 0.00 0.46 0.00 97 1016.3
20260903122903 22 65 0.0 3.2 0.00 0.46 0.00 97 1016.3
20260903122640 22 65 0.0 4.8 0.00 0.46 0.00 97 1016.3
20260903121902 22 65 0.0 4.8 0.00 0.46 0.00 97 1016.4
20260903121641 22 68 0.0 4.8 0.00 0.46 0.00 97 1016.4
20260903120903 22 35 1.6 6.4 0.00 0.46 0.00 97 1016.4
20260903120403 22 59 1.6 6.4 0.00 0.46 0.00 97 1016.6
20260903115905 22 52 1.6 4.8 0.00 0.46 0.00 97 1016.6
20260903115403 22 52 0.0 6.4 0.00 0.46 0.00 97 1016.5
20260903114903 22 52 1.6 6.4 0.00 0.46 0.00 97 1016.5
20260903114404 22 44 1.6 4.8 0.00 0.46 0.00 97 1016.5
20260903113902 22 298 0.0 4.8 0.00 0.46 0.00 97 1016.6
20260903113403 22 235 1.6 6.4 0.00 0.46 0.00 97 1016.5
20260903112903 22 54 1.6 6.4 0.00 0.46 0.00 97 1016.4
20260903112640 22 63 1.6 6.4 0.00 0.46 0.00 97 1016.4
20260903111902 22 58 0.0 6.4 0.00 0.46 0.00 97 1016.2
20260903111403 22 66 0.0 0.0 0.00 0.46 0.00 97 1016.3
20260903110902 22 66 0.0 0.0 0.00 0.46 0.00 97 1015.7
20260903110401 22 66 0.0 0.0 0.00 0.46 0.00 97 1015.5
20260903105918 22 66 0.0 0.0 0.00 0.46 0.00 97 1015.5
20260903105911 22 66 0.0 0.0 0.00 0.46 0.00 97 1015.5
20260903104856 22 66 0.0 0.0 0.00 0.46 0.00 97 1015.4
20260903104635 21 66 0.0 0.0 0.00 0.46 0.00 97 1015.4
20260903103853 21 66 0.0 0.0 0.00 0.46 0.00 97 1015.3
20260903103631 21 66 0.0 0.0 0.00 0.46 0.00 97 1015.1
20260903102850 21 66 0.0 0.0 0.00 0.46 0.00 97 1015.0
20260903102349 21 66 0.0 0.0 0.00 0.46 0.00 97 1014.6
20260903101847 21 66 0.0 0.0 0.00 0.46 0.00 97 1014.6
20260903101409 21 66 0.0 0.0 0.00 0.46 0.00 97 1014.5
20260903101401 21 66 0.0 0.0 0.00 0.46 0.00 97 1014.6
20260903100344 21 66 0.0 0.0 0.00 0.46 0.00 97 1014.4
20260903095841 21 66 0.0 0.0 0.00 0.46 0.00 97 1014.4
20260903095342 21 66 0.0 0.0 0.00 0.46 0.00 97 1014.5
20260903094837 21 66 0.0 0.0 0.00 0.46 0.00 97 1014.5
20260903094335 21 66 0.0 0.0 0.00 0.46 0.00 97 1014.6
20260903093835 21 66 0.0 0.0 0.00 0.46 0.00 97 1014.6
20260903093331 21 66 0.0 0.0 0.00 0.46 0.00 97 1014.6
20260903092832 21 66 0.0 0.0 0.00 0.46 0.00 97 1014.7
20260903092331 21 66 0.0 0.0 0.00 0.46 0.00 97 1014.8
20260903091830 21 66 0.0 0.0 0.00 0.46 0.00 97 1014.7
20260903091330 21 66 0.0 0.0 0.00 0.46 0.00 97 1014.7
20260903090831 21 66 0.0 0.0 0.00 0.46 0.00 97 1014.7
20260903090332 21 66 0.0 0.0 0.00 0.46 0.00 97 1014.7
20260903085827 21 66 0.0 0.0 0.00 0.46 0.00 97 1014.6
20260903085328 21 66 0.0 0.0 0.00 0.46 0.00 97 1014.5
20260903084822 21 66 0.0 0.0 0.00 0.46 0.00 97 1014.6
20260903084322 21 66 0.0 0.0 0.00 0.46 0.00 97 1014.5
20260903084104 21 66 0.0 0.0 0.00 0.46 0.00 97 1014.4
20260903083323 21 66 0.0 0.0 0.00 0.46 0.00 97 1014.4
20260903082817 21 66 0.0 0.0 0.00 0.46 0.00 97 1014.3
20260903082316 21 66 0.0 0.0 0.00 0.46 0.00 97 1014.3
20260903081817 21 66 0.0 0.0 0.00 0.46 0.00 97 1014.4
20260903081316 21 66 0.0 0.0 0.00 0.46 0.00 97 1014.6
20260903081048 21 66 0.0 0.0 0.00 0.46 0.00 97 1014.6
20260903080307 21 66 0.0 1.6 0.00 0.46 0.00 97 1014.5
20260903075808 21 66 0.0 1.6 0.00 0.46 0.00 97 1014.6
20260903075308 21 66 0.0 0.0 0.00 0.46 0.00 97 1014.6
20260903074804 21 66 0.0 0.0 0.00 0.46 0.00 97 1014.6
20260903074303 21 66 0.0 0.0 0.00 0.46 0.00 97 1014.6
20260903073803 21 66 0.0 0.0 0.00 0.46 0.00 97 1014.5
20260903073304 21 66 0.0 0.0 0.00 0.46 0.00 97 1014.5
20260903072805 21 66 0.0 0.0 0.00 0.46 0.00 97 1014.4
20260903072306 21 66 0.0 3.2 0.00 0.46 0.00 97 1014.5
20260903072041 21 66 0.0 3.2 0.00 0.46 0.00 97 1014.4
20260903071303 21 66 0.0 1.6 0.00 0.46 0.00 97 1014.5
20260903070804 21 66 0.0 4.8 0.00 0.46 0.00 97 1014.3
20260903070304 21 66 0.0 4.8 0.00 0.46 0.00 97 1014.3
20260903065802 21 144 0.0 3.2 0.00 0.46 0.00 97 1014.2
20260903065305 21 144 0.0 0.0 0.00 0.46 0.00 97 1014.2
20260903064802 21 144 0.0 0.0 0.00 0.46 0.00 97 1014.3
20260903064301 21 144 0.0 0.0 0.00 0.46 0.00 97 1014.4
20260903063828 21 144 0.0 3.2 0.00 0.46 0.00 97 1014.6
20260903063818 21 144 0.0 1.6 0.00 0.46 0.00 97 1014.5
20260903062803 21 144 0.0 3.2 0.00 0.46 0.00 97 1014.4
20260903062542 21 52 0.0 1.6 0.00 0.46 0.00 97 1014.4
20260903061802 21 52 0.0 3.2 0.00 0.46 0.00 97 1014.3
20260903061302 21 52 0.0 3.2 0.00 0.46 0.00 97 1014.3
20260903060802 21 51 0.0 3.2 0.00 0.46 0.00 97 1014.5
20260903060302 21 51 1.6 3.2 0.00 0.46 0.00 97 1014.6
20260903055803 21 51 0.0 1.6 0.00 0.46 0.00 97 1014.5
20260903055306 21 97 0.0 1.6 0.00 0.46 0.00 97 1014.5
20260903054802 21 73 0.0 0.0 0.00 0.46 0.00 97 1014.6
20260903054302 21 73 0.0 0.0 0.00 0.46 0.00 96 1014.7
20260903053802 21 73 0.0 0.0 0.00 0.46 0.00 96 1014.8
20260903053326 21 73 0.0 0.0 0.00 0.46 0.00 96 1014.8
20260903053318 21 73 0.0 0.0 0.00 0.46 0.00 96 1014.8
20260903052541 21 73 0.0 0.0 0.00 0.46 0.00 96 1014.8
20260903051803 21 73 0.0 0.0 0.00 0.46 0.00 96 1014.8
20260903051259 21 73 0.0 0.0 0.00 0.46 0.00 96 1014.9
20260903050800 21 73 0.0 0.0 0.00 0.46 0.00 96 1015.0
20260903050300 22 73 0.0 0.0 0.00 0.46 0.00 96 1015.1
20260903045749 22 73 0.0 0.0 0.00 0.46 0.00 96 1015.0
20260903045251 22 73 0.0 0.0 0.00 0.46 0.00 96 1015.1
20260903044747 22 73 0.0 0.0 0.00 0.46 0.00 96 1015.1
20260903044245 22 73 0.0 0.0 0.00 0.46 0.00 96 1015.2
20260903043746 22 73 0.0 0.0 0.00 0.46 0.00 96 1015.2
20260903043643 22 73 0.0 0.0 0.00 0.46 0.00 96 1015.3
20260903043357 22 73 0.0 0.0 0.00 0.46 0.00 96 1015.2
20260903043338 22 73 0.0 0.0 0.00 0.46 0.00 96 1015.2
20260903043109 22 73 0.0 0.0 0.00 0.46 0.00 96 1015.3
20260903041243 22 73 0.0 0.0 0.00 0.46 0.00 96 1015.4
20260903041024 22 73 0.0 0.0 0.00 0.46 0.00 96 1015.5
20260903040243 22 73 0.0 0.0 0.00 0.46 0.00 96 1015.6
20260903035743 22 73 0.0 0.0 0.00 0.46 0.46 96 1015.5
20260903035243 22 73 0.0 0.0 0.00 0.46 0.46 96 1015.4
20260903034743 22 73 0.0 0.0 0.00 0.46 0.46 96 1015.5
20260903034243 22 73 0.0 0.0 0.00 0.46 0.46 96 1015.3
20260903033742 22 73 0.0 0.0 0.00 0.46 0.46 96 1015.2
20260903033244 22 73 0.0 0.0 0.00 0.46 0.46 96 1015.3
20260903032741 22 73 0.0 0.0 0.00 0.46 0.46 96 1015.4
20260903032242 22 73 0.0 0.0 0.00 0.46 0.46 96 1015.5
20260903031806 22 73 0.0 0.0 0.00 0.46 0.46 96 1015.6
20260903031757 22 73 0.0 0.0 0.00 0.46 0.46 96 1015.7
20260903031021 22 73 0.0 0.0 0.00 0.46 0.46 96 1015.3
20260903030242 22 73 0.0 0.0 0.00 0.46 0.46 96 1015.5
20260903025742 22 73 0.0 0.0 0.00 0.46 0.46 96 1015.3
20260903025241 22 73 0.0 0.0 0.00 0.46 0.46 96 1015.5
20260903024742 22 73 0.0 0.0 0.00 0.46 0.46 96 1015.4
20260903024243 22 73 0.0 0.0 0.00 0.46 0.46 96 1015.4
20260903023741 22 73 0.0 0.0 0.00 0.46 0.46 96 1015.3
20260903023241 22 73 0.0 1.6 0.00 0.46 0.46 96 1015.3
20260903023019 22 73 1.6 3.2 0.00 0.46 0.46 96 1015.2
20260903022543 22 73 3.2 3.2 0.00 0.46 0.46 96 1015.1
20260903022539 22 73 1.6 3.2 0.00 0.46 0.46 96 1015.1
20260903021241 22 73 0.0 3.2 0.00 0.46 0.46 96 1014.9
20260903020742 22 73 0.0 0.0 0.00 0.46 0.46 96 1014.8
20260903020304 22 73 0.0 0.0 0.00 0.46 0.46 96 1014.9
20260903020256 22 73 0.0 0.0 0.00 0.46 0.46 96 1014.7
20260903015240 22 73 0.0 0.0 0.00 0.46 0.46 96 1014.7
20260903014740 22 73 0.0 0.0 0.00 0.46 0.46 96 1014.6
20260903014240 22 73 0.0 0.0 0.00 0.46 0.46 96 1014.6
20260903013741 22 73 0.0 0.0 0.00 0.46 0.46 96 1014.8
20260903013519 22 73 0.0 0.0 0.00 0.46 0.46 96 1015.0
20260903012740 22 73 0.0 0.0 0.00 0.46 0.46 96 1015.0
20260903012243 22 73 0.0 0.0 0.00 0.46 0.46 96 1015.0
20260903012013 22 73 0.0 0.0 0.00 0.46 0.46 95 1015.2
20260903011231 22 73 0.0 0.0 0.00 0.46 0.46 96 1015.2
20260903010731 22 73 0.0 0.0 0.00 0.46 0.46 95 1015.4
20260903010232 22 73 0.0 0.0 0.00 0.46 0.46 96 1015.3
20260903005731 22 73 0.0 0.0 0.00 0.46 0.46 95 1015.2
20260903005513 22 73 0.0 0.0 0.00 0.46 0.46 95 1015.2
20260903004733 22 73 0.0 0.0 0.00 0.46 0.46 95 1015.3
20260903004230 22 73 0.0 1.6 0.00 0.46 0.46 95 1015.3
20260903003751 23 73 0.0 0.0 0.00 0.46 0.46 95 1015.1
20260903003744 22 73 0.0 1.6 0.00 0.46 0.46 95 1015.2
20260903002731 23 73 0.0 0.0 0.00 0.46 0.46 95 1015.0
20260903002232 23 73 0.0 0.0 0.00 0.46 0.46 95 1015.1
20260903001732 23 73 0.0 0.0 0.00 0.46 0.46 95 1015.1
20260903001231 23 73 0.0 0.0 0.00 0.46 0.46 95 1015.2
20260903001013 23 73 0.0 0.0 0.00 0.46 0.46 95 1015.3
20260903000233 23 73 0.0 0.0 0.00 0.46 0.46 95 1015.5
20260902235731 23 73 0.0 0.0 0.00 0.46 0.46 95 1015.5
20260902235232 23 73 0.0 0.0 0.00 0.46 0.46 95 1015.4
20260902234733 23 73 0.0 1.6 0.00 0.46 0.46 95 1015.3
20260902234230 23 73 0.0 1.6 0.00 0.46 0.46 94 1015.2
20260902233731 23 73 0.0 0.0 0.00 0.46 0.46 94 1015.2
20260902233230 23 73 0.0 0.0 0.00 0.46 0.46 94 1015.3
20260902232732 23 73 0.0 0.0 0.00 0.46 0.46 94 1015.1
20260902232231 23 73 0.0 0.0 0.00 0.46 0.46 94 1015.1
20260902231731 23 73 0.0 0.0 0.00 0.46 0.46 94 1015.3
20260902231232 23 73 0.0 0.0 0.00 0.46 0.46 94 1015.5
20260902230730 23 73 0.0 0.0 0.00 0.46 0.46 93 1015.6
20260902230232 23 73 0.0 0.0 0.00 0.46 0.46 93 1015.6
20260902230011 23 73 0.0 0.0 0.00 0.46 0.46 93 1015.5
20260902225207 23 73 0.0 1.6 0.00 0.46 0.46 93 1015.5
20260902224726 24 73 0.0 0.0 0.00 0.46 0.46 93 1015.5
20260902224719 23 73 0.0 1.6 0.00 0.46 0.46 93 1015.5
20260902223703 24 73 0.0 0.0 0.00 0.46 0.46 92 1015.6
20260902223203 24 73 0.0 0.0 0.00 0.46 0.46 93 1015.6
20260902222704 24 73 0.0 0.0 0.00 0.46 0.46 93 1015.6
20260902222203 24 73 0.0 0.0 0.00 0.46 0.46 93 1015.6
20260902221917 24 73 0.0 3.2 0.00 0.46 0.46 93 1015.5
20260902221707 24 73 0.0 3.2 0.00 0.46 0.46 93 1015.5
20260902221203 24 73 0.0 3.2 0.00 0.46 0.46 94 1015.3
20260902220704 24 73 0.0 1.6 0.00 0.46 0.46 95 1015.4